星链-3929 (STARLINK-3929 )

导读 | 豆包AI

STARLINK-3929是美国太空探索技术公司SpaceX于2022年5月13日发射的星链低轨互联网星座卫星,运行在近地轨道,属于星链全球互联网组网的组成部分,为全球尤其是地面基础设施匮乏区域提供高速低延迟宽带互联网服务,助力偏远地区接入网络,目前卫星处于在轨运行状态。

Basic Information
目录编号:
52567
目录名称:
STARLINK-3929
国际标识:
2022-051AL
轨道中心:
EARTH
卫星名称:
星链-3929
卫星全名:
星链-3929 (STARLINK-3929 )
卫星状态:
在轨 (已飞行1448 天)
发射日期:
2022-05-13 UTC
国别 :
美国 (US)
星等 :
--
Orbit Information
数据来源 国际轨道数据 AOE轨道数据
星历时间 2026-04-30T23:15:38+0800
7小时前
查看轨道信息
2026-04-28T07:00:00+0800
3天前
查看轨道信息
半长轴 6917.876km 6917.889km
偏心率 0.0001147 0.0001309
轨道倾角 53.218° 53.216°
近地点辐角 94.543° 76.816°
升交点赤经 245.925° 257.945°
平近点角 265.570° 131.535°
近地点 538.945km 538.846km
远地点 540.533km 540.658km
周期 95.437分钟 95.438分钟
每日圈数 15.088417 15.088372
Detailed Information
固有亮度:
5
最大亮度:
2.5
卫星平台:
Starlink v1.5
覆盖范围:
全球
运营商:
太空探索技术公司
运营商所在国:
美国
制造商(研发单位):
太空探索技术公司
制造商所在国:
美国
使用方式:
暂无
Satellite Introduction
星链(Starlink)计划是由太空探索技术公司(SpaceX)提出的一个巨型低轨卫星互联网星座项目,计划在2019年至2024年间在太空搭建由约1.2万颗卫星组成的“星链”网络,其中1584颗将部署在地球上空550千米处的近地轨道,并从2020年开始工作。该卫星仍在工作。
2D Orbit Map
3D Orbit Map
Orbit Altitude Analysis Chart
Orbit Inclination Analysis Chart
Orbit Comprehensive Analysis Chart
View Comprehensive Chart